Home > Weather > Riverside > Past weeks

Flag for USA Past Weather in Riverside, California, USA — Yesterday and Last 2 Weeks

Now
58 °F

Clear.


Feels Like: 58 °F
Forecast: 57 / 81 °F
Wind: 3 mph from Northwest

Location: Riverside Municipal Airport

Current Time: May 28, 2016 at 4:49:13 AM

Latest Report: May 28, 2016 at 3:53 AM


Visibility: 9 mi

Pressure: 29.79 "Hg

Humidity: 87%

Dew Point: 54 °F

Location of RiversideLocation

Past Weather in Riverside — Graph

°F

Riverside Temperature Yesterday

Maximum temperature yesterday: 82 °F (at 3:53 PM)
Minimum temperature yesterday: 56 °F (at 5:53 AM)
Average temperature yesterday: 67 °F

High & Low Weather Summary for the Past Weeks

 TemperatureHumidityPressure
High89 °F (May 13, 2:53 PM)90% (May 20, 1:53 AM)30.06 "Hg (May 20, 1:53 AM)
Low51 °F (May 22, 5:53 AM)22% (May 13, 2:53 PM)29.75 "Hg (May 19, 5:53 PM)
Average65 °F61%29.90 "Hg
* Reported May 13 2:53 AM — May 28 2:53 AM, Riverside, Weather by CustomWeather, © 2016

Note: Actual official high and low records may vary slightly from our data, if they occured in-between our weather recording intervals... More about our weather records

Advertising

Riverside Weather History for the Previous 24 Hours

Scroll right to see more
 ConditionsComfort  
Time TempWeatherWind HumidityBarometerVisibility
2:53 AM
Sat, May 28
59 °FClear.3 mph84%29.79 "Hg9 mi
1:53 AM60 °FClear.No wind80%29.81 "Hg10 mi
12:53 AM60 °FClear.No wind80%29.83 "Hg10 mi
11:53 PM
Fri, May 27
61 °FClear.No wind78%29.84 "Hg10 mi
10:53 PM61 °FClear.5 mph78%29.85 "Hg10 mi
9:53 PM64 °FClear.6 mph70%29.85 "Hg10 mi
8:53 PM66 °FClear.7 mph65%29.84 "Hg10 mi
7:53 PM68 °FSunny.9 mph61%29.81 "Hg10 mi
6:53 PM72 °FSunny.14 mph49%29.78 "Hg10 mi
5:53 PM76 °FSunny.13 mph42%29.77 "Hg10 mi
4:53 PM79 °FSunny.13 mph38%29.76 "Hg10 mi
3:53 PM82 °FSunny.12 mph34%29.76 "Hg10 mi
2:53 PM80 °FSunny.9 mph35%29.78 "Hg10 mi
1:53 PM81 °FSunny.12 mph34%29.80 "Hg10 mi
12:53 PM78 °FSunny.7 mph39%29.83 "Hg10 mi
11:53 AM73 °FSunny.6 mph48%29.86 "Hg10 mi
10:53 AM70 °FSunny.3 mph53%29.88 "Hg8 mi
9:53 AM66 °FPassing clouds.7 mph61%29.90 "Hg8 mi
8:53 AM63 °FPassing clouds.No wind68%29.90 "Hg8 mi
7:53 AM61 °FOvercast.No wind72%29.91 "Hg10 mi
6:53 AM58 °FOvercast.No wind81%29.92 "Hg10 mi
5:53 AM56 °FOvercast.No wind84%29.92 "Hg10 mi
4:53 AM57 °FPassing clouds.No wind81%29.91 "Hg10 mi
Weather by CustomWeather, © 2016

See weather overviewHow to use our weather pages